Weather History for Martha's Vineyard, MA

Change the Weather History Date:

Monday, March 24, 2014

  Actual Average Record
Temperature  
Mean Temperature 26 °F -  
Max Temperature 33 °F 46 °F 60 °F (1953)
Min Temperature 17 °F 30 °F 17 °F (2008)
Degree Days  
Heating Degree Days 40    
Moisture  
Dew Point 1 °F    
Average Humidity 37    
Maximum Humidity 54    
Minimum Humidity 23    
Precipitation  
Precipitation 0.00 in - - ()
Sea Level Pressure  
Sea Level Pressure 30.10 in    
Wind  
Wind Speed 13 mph (NW)    
Max Wind Speed 20 mph    
Max Gust Speed 31 mph    
Visibility 10 miles    
Events      
Averages and records for this station are not official NWS values.
T = Trace of Precipitation, MM = Missing Value Source: NWS Daily Summary

Daily Weather History Graph

Daily Weather History Graph

Search for Another Location

Airport:

Trip Planner

Search our weather history database for the weather conditions in past years. The results will help you decide how hot, cold, wet, or windy it might be!

Date:

Astronomy

Mar. 24, 2014 Rise Set
Actual Time 6:39 AM EDT 6:58 PM EDT
Civil Twilight 6:11 AM EDT 7:26 PM EDT
Nautical Twilight 5:39 AM EDT 7:59 PM EDT
Astronomical Twilight 5:05 AM EDT 8:32 PM EDT
Moon 2:09 AM EDT (3/24) 12:17 PM EDT (3/24)
Length of Visible Light 13h 15m
Length of Day
12h 19m
Last Quarter, 43% of the Moon is Illuminated
Mar 24
Last Quarter
Mar 30
New
Apr 7
First Quarter
Apr 15
Full
Apr 22
Last Quarter

Hourly Weather History & Observations

Time (EDT) Temp. Windchill Dew Point Humidity Pressure Visibility Wind Dir Wind Speed Gust Speed Precip Events Conditions
12:53 AM 30.0 °F 20.5 °F 7.0 °F 38% 30.02 in 10.0 mi NNE 11.5 mph 21.9 mph N/A   Overcast
1:53 AM 28.0 °F 16.1 °F 5.0 °F 38% 30.04 in 10.0 mi North 16.1 mph 23.0 mph N/A   Mostly Cloudy
2:53 AM 25.0 °F 11.3 °F 1.0 °F 36% 30.04 in 10.0 mi North 18.4 mph 25.3 mph N/A   Mostly Cloudy
3:53 AM 21.9 °F 7.8 °F -2.0 °F 35% 30.06 in 10.0 mi North 17.3 mph 31.1 mph N/A   Overcast
4:53 AM 19.9 °F 5.2 °F 1.9 °F 46% 30.09 in 10.0 mi NNW 17.3 mph 24.2 mph N/A   Clear
5:53 AM 19.0 °F 3.6 °F 1.9 °F 47% 30.11 in 10.0 mi NNW 18.4 mph 24.2 mph N/A   Clear
6:53 AM 19.0 °F 5.0 °F 1.9 °F 47% 30.13 in 10.0 mi NNW 15.0 mph 21.9 mph N/A   Clear
7:53 AM 21.0 °F 8.6 °F 1.9 °F 44% 30.15 in 10.0 mi North 12.7 mph - N/A   Clear
8:53 AM 23.0 °F 10.1 °F 1.9 °F 40% 30.15 in 10.0 mi NNW 15.0 mph - N/A   Clear
9:53 AM 25.0 °F 13.1 °F -0.0 °F 34% 30.16 in 10.0 mi North 13.8 mph 21.9 mph N/A   Clear
10:53 AM 26.1 °F 12.3 °F -2.0 °F 30% 30.15 in 10.0 mi NNW 19.6 mph 26.5 mph N/A   Clear
11:53 AM 28.0 °F 17.5 °F -2.0 °F 27% 30.14 in 10.0 mi WNW 12.7 mph 19.6 mph N/A   Clear
12:53 PM 28.9 °F 22.8 °F -4.0 °F 24% 30.13 in 10.0 mi Variable 5.8 mph - N/A   Clear
1:53 PM 30.9 °F 21.7 °F -2.9 °F 23% 30.10 in 10.0 mi West 11.5 mph 18.4 mph N/A   Clear
2:53 PM 30.9 °F 23.5 °F -2.0 °F 24% 30.08 in 10.0 mi NW 8.1 mph 21.9 mph N/A   Clear
3:53 PM 32.0 °F 23.6 °F -0.9 °F 24% 30.07 in 10.0 mi West 10.4 mph - N/A   Clear
4:53 PM 32.0 °F 24.8 °F -0.0 °F 26% 30.06 in 10.0 mi West 8.1 mph - N/A   Clear
5:53 PM 30.9 °F 22.2 °F -0.9 °F 26% 30.06 in 10.0 mi WSW 10.4 mph - N/A   Clear
6:53 PM 28.9 °F 22.8 °F 3.9 °F 35% 30.07 in 10.0 mi WSW 5.8 mph - N/A   Clear
7:53 PM 28.0 °F 24.2 °F 3.9 °F 36% 30.09 in 10.0 mi WSW 3.5 mph - N/A   Clear
8:53 PM 21.9 °F - 5.0 °F 48% 30.12 in 10.0 mi Calm Calm - N/A   Clear
9:53 PM 19.9 °F 13.4 °F 3.9 °F 50% 30.13 in 10.0 mi NW 4.6 mph - N/A   Clear
10:53 PM 19.9 °F 14.9 °F 3.9 °F 50% 30.14 in 10.0 mi NNW 3.5 mph - N/A   Clear
11:53 PM 17.1 °F 11.7 °F 3.0 °F 54% 30.15 in 10.0 mi NW 3.5 mph - N/A   Clear